Weather History for Eveleth, MN

Change the Weather History Date:

Wednesday, January 23, 2013

  Actual Average Record
Temperature  
Mean Temperature -10 °F -  
Max Temperature 1 °F 17 °F 35 °F (1993)
Min Temperature -20 °F 0 °F -27 °F (2011)
Degree Days  
Heating Degree Days 74    
Moisture  
Dew Point -16 °F    
Average Humidity 67    
Maximum Humidity 84    
Minimum Humidity 55    
Precipitation  
Precipitation 0.00 in - - ()
Sea Level Pressure  
Sea Level Pressure 30.21 in    
Wind  
Wind Speed 4 mph (NW)    
Max Wind Speed 20 mph    
Max Gust Speed 29 mph    
Visibility 7 miles    
Events Snow    
Averages and records for this station are not official NWS values.
T = Trace of Precipitation, MM = Missing Value Source: NWS Daily Summary

Daily Weather History Graph

Daily Weather History Graph

Search for Another Location

Airport:

Trip Planner

Search our weather history database for the weather conditions in past years. The results will help you decide how hot, cold, wet, or windy it might be!

Date:

Astronomy

Jan. 23, 2013 Rise Set
Actual Time 7:46 AM CST 4:58 PM CST
Civil Twilight 7:12 AM CST 5:32 PM CST
Nautical Twilight 6:34 AM CST 6:09 PM CST
Astronomical Twilight 5:58 AM CST 6:46 PM CST
Moon 2:05 PM CST (1/23) 5:01 AM CST (1/23)
Length of Visible Light 10h 19m
Length of Day
9h 12m
Waxing Gibbous, 89% of the Moon is Illuminated
Jan 23
Waxing Gibbous
Jan 26
Full
Feb 3
Last Quarter
Feb 10
New
Feb 17
First Quarter

Hourly Weather History & Observations

Time (CST) Temp. Windchill Dew Point Humidity Pressure Visibility Wind Dir Wind Speed Gust Speed Precip Events Conditions
12:09 AM -16.6 °F - -23.8 °F 70% 30.09 in 10.0 mi Calm Calm - N/A   Mostly Cloudy
12:30 AM -16.6 °F - -22.0 °F 76% 30.09 in 10.0 mi Calm Calm - N/A   Overcast
12:49 AM -14.8 °F - -20.2 °F 77% 30.08 in 10.0 mi Calm Calm - N/A   Overcast
1:09 AM -16.6 °F - -25.6 °F 64% 30.07 in 10.0 mi Calm Calm - N/A   Overcast
1:30 AM -16.6 °F - -23.8 °F 70% 30.08 in 10.0 mi Calm Calm - N/A   Scattered Clouds
1:49 AM -16.6 °F - -23.8 °F 70% 30.08 in 10.0 mi Calm Calm - N/A   Clear
2:09 AM -18.4 °F - -25.6 °F 70% 30.08 in 10.0 mi Calm Calm - N/A   Mostly Cloudy
2:30 AM -20.2 °F - -27.4 °F 69% 30.08 in 10.0 mi Calm Calm - N/A   Overcast
2:49 AM -18.4 °F - -25.6 °F 70% 30.08 in 10.0 mi Calm Calm - N/A   Overcast
3:09 AM -16.6 °F - -23.8 °F 70% 30.07 in 10.0 mi Calm Calm - N/A   Overcast
3:30 AM -16.6 °F - -22.0 °F 76% 30.06 in 10.0 mi Calm Calm - N/A   Overcast
3:49 AM -14.8 °F - -22.0 °F 70% 30.06 in 10.0 mi Calm Calm - N/A   Overcast
4:09 AM -13.0 °F - -18.4 °F 77% 30.05 in 10.0 mi Calm Calm - N/A Snow Light Snow
4:29 AM -11.2 °F - -16.6 °F 77% 30.05 in 4.0 mi Calm Calm - N/A Snow Light Snow
4:49 AM -9.4 °F - -14.8 °F 77% 30.04 in 3.0 mi Calm Calm - N/A Snow Light Snow
5:10 AM -7.6 °F -16.5 °F -13.0 °F 77% 30.03 in 2.5 mi WSW 3.5 mph - N/A Snow Light Snow
5:29 AM -5.8 °F - -11.2 °F 77% 30.03 in 3.0 mi Calm Calm - N/A Snow Light Snow
5:49 AM -5.8 °F - -11.2 °F 77% 30.03 in 1.2 mi Calm Calm - N/A Snow Light Snow
6:10 AM -5.8 °F - -13.0 °F 71% 30.02 in 1.8 mi Calm Calm - N/A Snow Light Snow
6:29 AM -5.8 °F - -11.2 °F 77% 30.02 in 1.8 mi Calm Calm - N/A Snow Light Snow
6:50 AM -5.8 °F -14.5 °F -9.4 °F 84% 30.01 in 2.0 mi West 3.5 mph - N/A Snow Light Snow
7:09 AM -5.8 °F -14.5 °F -9.4 °F 84% 30.01 in 1.8 mi West 3.5 mph - N/A Snow Light Snow
7:30 AM -2.2 °F - -7.6 °F 78% 30.01 in 1.5 mi Calm Calm - N/A Snow Light Snow
7:49 AM -2.2 °F - -7.6 °F 78% 30.00 in 1.2 mi Calm Calm - N/A Snow Light Snow
8:09 AM -2.2 °F - -7.6 °F 78% 30.01 in 0.5 mi Calm Calm - N/A Snow Snow
8:30 AM -2.2 °F -10.4 °F -7.6 °F 78% 30.01 in 1.0 mi WSW 3.5 mph - N/A Snow Light Snow
8:49 AM -2.2 °F -10.4 °F -7.6 °F 78% 30.02 in 4.0 mi West 3.5 mph - N/A Snow Light Snow
9:09 AM -2.2 °F -10.4 °F -7.6 °F 78% 30.02 in 7.0 mi WNW 3.5 mph - N/A Snow Light Snow
9:30 AM -0.4 °F -17.6 °F -5.8 °F 78% 30.03 in 3.0 mi NW 11.5 mph 19.6 mph N/A Snow Light Snow
9:49 AM 1.4 °F -18.2 °F -5.8 °F 72% 30.05 in 4.0 mi WNW 16.1 mph 20.7 mph N/A   Haze
10:09 AM 1.4 °F -15.3 °F -7.6 °F 66% 30.05 in 3.0 mi WNW 11.5 mph 19.6 mph N/A   Haze
10:30 AM 1.4 °F -17.6 °F -7.6 °F 66% 30.07 in 2.5 mi NW 15.0 mph 19.6 mph N/A   Haze
10:49 AM -0.4 °F -19.2 °F -7.6 °F 72% 30.07 in 4.0 mi NW 13.8 mph 23.0 mph N/A   Haze
11:09 AM -0.4 °F -21.2 °F -9.4 °F 66% 30.09 in 4.0 mi NW 17.3 mph 26.5 mph N/A   Haze
11:30 AM -0.4 °F -22.3 °F -9.4 °F 66% 30.10 in 2.5 mi NW 19.6 mph 26.5 mph N/A   Haze
11:49 AM -0.4 °F -20.5 °F -9.4 °F 66% 30.11 in 1.5 mi NW 16.1 mph 24.2 mph N/A   Haze
12:09 PM -2.2 °F -22.9 °F -11.2 °F 66% 30.12 in 1.5 mi NNW 16.1 mph 28.8 mph N/A   Haze
12:30 PM -2.2 °F -23.5 °F -11.2 °F 66% 30.14 in 2.0 mi NW 17.3 mph 23.0 mph N/A   Haze
12:49 PM -2.2 °F -24.7 °F -13.0 °F 60% 30.15 in 2.0 mi NW 19.6 mph 26.5 mph N/A   Haze
1:09 PM -2.2 °F -20.7 °F -13.0 °F 60% 30.15 in 5.0 mi NNW 12.7 mph 20.7 mph N/A   Haze
1:30 PM -2.2 °F -23.5 °F -13.0 °F 60% 30.17 in 3.0 mi NW 17.3 mph 23.0 mph N/A   Haze
1:49 PM -2.2 °F -20.7 °F -14.8 °F 55% 30.18 in 7.0 mi NNW 12.7 mph 24.2 mph N/A   Overcast
2:09 PM -2.2 °F -19.9 °F -14.8 °F 55% 30.21 in 5.0 mi NW 11.5 mph 23.0 mph N/A   Haze
2:30 PM -2.2 °F -21.5 °F -14.8 °F 55% 30.22 in 10.0 mi NNW 13.8 mph 21.9 mph N/A   Overcast
2:49 PM -2.2 °F -19.9 °F -14.8 °F 55% 30.25 in 10.0 mi NW 11.5 mph 23.0 mph N/A   Mostly Cloudy
3:09 PM -4.0 °F -21.2 °F -16.6 °F 55% 30.26 in 10.0 mi NNW 10.4 mph 23.0 mph N/A   Mostly Cloudy
3:30 PM -4.0 °F -24.5 °F -16.6 °F 55% 30.28 in 10.0 mi North 15.0 mph 19.6 mph N/A   Mostly Cloudy
3:49 PM -5.8 °F -23.4 °F -16.6 °F 60% 30.29 in 10.0 mi NNW 10.4 mph 16.1 mph N/A   Scattered Clouds
4:10 PM -5.8 °F -23.4 °F -16.6 °F 60% 30.31 in 10.0 mi North 10.4 mph 20.7 mph N/A   Scattered Clouds
4:29 PM -5.8 °F -21.2 °F -16.6 °F 60% 30.33 in 10.0 mi NNW 8.1 mph - N/A   Clear
4:49 PM -5.8 °F -21.2 °F -18.4 °F 55% 30.34 in 10.0 mi NNW 8.1 mph - N/A   Clear
5:10 PM -7.6 °F -26.6 °F -18.4 °F 59% 30.35 in 10.0 mi NNW 11.5 mph 17.3 mph N/A   Clear
5:29 PM -7.6 °F -24.6 °F -18.4 °F 59% 30.37 in 10.0 mi NNW 9.2 mph - N/A   Clear
5:49 PM -7.6 °F -24.6 °F -18.4 °F 59% 30.39 in 10.0 mi NNW 9.2 mph - N/A   Clear
6:10 PM -7.6 °F -23.4 °F -18.4 °F 59% 30.41 in 10.0 mi NW 8.1 mph - N/A   Clear
6:29 PM -7.6 °F -20.6 °F -18.4 °F 59% 30.43 in 10.0 mi NW 5.8 mph 17.3 mph N/A   Clear
6:49 PM -7.6 °F -25.7 °F -18.4 °F 59% 30.44 in 10.0 mi NW 10.4 mph - N/A   Scattered Clouds
7:10 PM -7.6 °F -22.1 °F -18.4 °F 59% 30.45 in 10.0 mi NNW 6.9 mph - N/A   Scattered Clouds
7:29 PM -9.4 °F -22.7 °F -18.4 °F 65% 30.46 in 10.0 mi NNW 5.8 mph - N/A   Clear
7:49 PM -9.4 °F -24.3 °F -18.4 °F 65% 30.46 in 10.0 mi NNW 6.9 mph - N/A   Clear
8:09 PM -9.4 °F -24.3 °F -18.4 °F 65% 30.47 in 10.0 mi NNW 6.9 mph - N/A   Clear
8:29 PM -9.4 °F -20.9 °F -18.4 °F 65% 30.47 in 10.0 mi North 4.6 mph - N/A   Clear
9:09 PM -11.2 °F -26.4 °F -20.2 °F 64% 30.49 in 10.0 mi NNW 6.9 mph - N/A   Clear
9:29 PM -13.0 °F -25.1 °F -22.0 °F 64% 30.49 in 10.0 mi North 4.6 mph - N/A   Clear
9:50 PM -13.0 °F - -22.0 °F 64% 30.50 in 10.0 mi Calm Calm - N/A   Clear
10:09 PM -13.0 °F -28.6 °F -22.0 °F 64% 30.51 in 10.0 mi North 6.9 mph - N/A   Clear
10:29 PM -13.0 °F -28.6 °F -22.0 °F 64% 30.52 in 10.0 mi North 6.9 mph - N/A   Clear
10:50 PM -13.0 °F -25.1 °F -22.0 °F 64% 30.52 in 10.0 mi North 4.6 mph - N/A   Clear
11:09 PM -14.8 °F -27.2 °F -22.0 °F 70% 30.52 in 10.0 mi North 4.6 mph - N/A   Clear
11:29 PM -14.8 °F -24.8 °F -23.8 °F 64% 30.53 in 10.0 mi NNW 3.5 mph - N/A   Clear
11:50 PM -14.8 °F - -23.8 °F 64% 30.54 in 10.0 mi Calm Calm - N/A   Clear